Date,Installs,Update checks
2015-01-28,7,4
2015-01-29,4,4
2015-01-30,6,7
2015-01-31,3,7
2015-02-01,2,6
2015-02-02,3,9
2015-02-03,9,12
2015-02-04,8,10
2015-02-05,10,24
2015-02-06,9,27
2015-02-07,10,25
2015-02-08,8,35
2015-02-09,17,44
2015-02-10,7,42
2015-02-11,5,40
2015-02-12,6,38
2015-02-13,3,40
2015-02-14,3,32
2015-02-15,6,51
2015-02-16,9,44
2015-02-17,3,55
2015-02-18,6,41
2015-02-19,8,34
2015-02-20,13,41
2015-02-21,4,45
2015-02-22,10,51
2015-02-23,6,50
2015-02-24,7,61
2015-02-25,7,67
2015-02-26,8,70
2015-02-27,10,76
2015-02-28,4,77
2015-03-01,5,69
2015-03-02,2,87
2015-03-03,0,63
2015-03-04,9,78
2015-03-05,7,80
2015-03-06,14,97
2015-03-07,13,87
2015-03-08,6,102
2015-03-09,5,112
2015-03-10,10,89
2015-03-11,8,122
2015-03-12,8,95
2015-03-13,11,135
2015-03-14,7,107
2015-03-15,11,115
2015-03-16,4,130
2015-03-17,4,109
2015-03-18,5,115
2015-03-19,3,119
2015-03-20,5,132
2015-03-21,2,105
2015-03-22,4,111
2015-03-23,4,128
2015-03-24,3,115
2015-03-25,3,125
2015-03-26,6,118
2015-03-27,3,141
2015-03-28,13,110
2015-03-29,10,124
2015-03-30,6,144
2015-03-31,11,125
2015-04-01,12,135
2015-04-02,13,145
2015-04-03,9,153
2015-04-04,11,125
2015-04-05,5,140
2015-04-06,3,141
2015-04-07,15,150
2015-04-08,12,162
2015-04-09,7,162
2015-04-10,8,157
2015-04-11,12,151
2015-04-12,10,153
2015-04-13,5,171
2015-04-14,4,146
2015-04-15,4,164
2015-04-16,10,169
2015-04-17,8,153
2015-04-18,14,150
2015-04-19,13,155
2015-04-20,14,177
2015-04-21,21,166
2015-04-22,13,196
2015-04-23,9,150
2015-04-24,6,198
2015-04-25,7,149
2015-04-26,6,171
2015-04-27,13,182
2015-04-28,8,191
2015-04-29,8,174
2015-04-30,9,201
2015-05-01,12,161
2015-05-02,8,168
2015-05-03,6,167
2015-05-04,2,201
2015-05-05,10,189
2015-05-06,6,209
2015-05-07,1,166
2015-05-08,6,196
2015-05-09,6,166
2015-05-10,4,178
2015-05-11,2,192
2015-05-12,8,178
2015-05-13,8,192
2015-05-14,9,188
2015-05-15,11,170
2015-05-16,7,188
2015-05-17,9,178
2015-05-18,9,213
2015-05-19,7,195
2015-05-20,7,205
2015-05-21,7,178
2015-05-22,7,221
2015-05-23,10,185
2015-05-24,9,193
2015-05-25,11,224
2015-05-26,4,199
2015-05-27,5,203
2015-05-28,2,31
2015-05-29,13,267
2015-05-30,8,164
2015-05-31,5,203
2015-06-01,10,189
2015-06-02,4,222
2015-06-03,3,220
2015-06-04,2,217
2015-06-05,1,219
2015-06-06,7,212
2015-06-07,4,172
2015-06-08,2,226
2015-06-09,4,195
2015-06-10,9,232
2015-06-11,6,203
2015-06-12,3,242
2015-06-13,9,179
2015-06-14,1,201
2015-06-15,4,148
2015-06-16,7,216
2015-06-17,6,223
2015-06-18,6,216
2015-06-19,6,210
2015-06-20,11,172
2015-06-21,13,186
2015-06-22,13,224
2015-06-23,11,233
2015-06-24,6,226
2015-06-25,8,230
2015-06-26,3,234
2015-06-27,4,177
2015-06-28,2,214
2015-06-29,9,236
2015-06-30,10,224
2015-07-01,5,247
2015-07-02,6,224
2015-07-03,1,225
2015-07-04,5,207
2015-07-05,7,219
2015-07-06,4,240
2015-07-07,13,220
2015-07-08,7,249
2015-07-09,3,224
2015-07-10,9,239
2015-07-11,10,203
2015-07-12,4,214
2015-07-13,1,238
2015-07-14,6,207
2015-07-15,3,237
2015-07-16,0,215
2015-07-17,1,213
2015-07-18,10,207
2015-07-19,3,199
2015-07-20,0,255
2015-07-21,8,205
2015-07-22,6,234
2015-07-23,8,205
2015-07-24,2,214
2015-07-25,8,202
2015-07-26,4,227
2015-07-27,6,230
2015-07-28,7,231
2015-07-29,6,226
2015-07-30,3,249
2015-07-31,5,218
2015-08-01,7,212
2015-08-02,2,199
2015-08-03,4,240
2015-08-04,5,221
2015-08-05,5,233
2015-08-06,6,231
2015-08-07,7,245
2015-08-08,10,218
2015-08-09,6,231
2015-08-10,1,241
2015-08-11,9,214
2015-08-12,10,261
2015-08-13,4,249
2015-08-14,5,223
2015-08-15,10,234
2015-08-16,3,215
2015-08-17,7,268
2015-08-18,4,223
2015-08-19,5,251
2015-08-20,10,234
2015-08-21,10,249
2015-08-22,4,218
2015-08-23,3,213
2015-08-24,6,258
2015-08-25,7,228
2015-08-26,7,238
2015-08-27,7,224
2015-08-28,2,253
2015-08-29,3,213
2015-08-30,3,218
2015-08-31,4,256
2015-09-01,4,227
2015-09-02,5,256
2015-09-03,10,190
2015-09-04,7,214
2015-09-05,7,213
2015-09-06,6,254
2015-09-07,5,228
2015-09-08,9,253
2015-09-09,6,231
2015-09-10,6,243
2015-09-11,12,234
2015-09-12,7,239
2015-09-13,10,222
2015-09-14,2,256
2015-09-15,3,229
2015-09-16,3,252
2015-09-17,2,240
2015-09-18,8,254
2015-09-19,6,232
2015-09-20,4,219
2015-09-21,4,252
2015-09-22,4,239
2015-09-23,5,247
2015-09-24,8,238
2015-09-25,9,255
2015-09-26,8,226
2015-09-27,10,233
2015-09-28,4,241
2015-09-29,3,236
2015-09-30,7,259
2015-10-01,3,206
2015-10-02,9,219
2015-10-03,6,218
2015-10-04,6,207
2015-10-05,7,234
2015-10-06,7,241
2015-10-07,2,260
2015-10-08,1,263
2015-10-09,3,260
2015-10-10,5,279
2015-10-11,4,232
2015-10-12,5,274
2015-10-13,6,259
2015-10-14,4,258
2015-10-15,2,257
2015-10-16,5,274
2015-10-17,7,253
2015-10-18,11,235
2015-10-19,3,279
2015-10-20,2,237
2015-10-21,4,246
2015-10-22,1,267
2015-10-23,4,248
2015-10-24,5,262
2015-10-25,8,232
2015-10-26,7,276
2015-10-27,6,239
2015-10-28,4,281
2015-10-29,3,247
2015-10-30,4,266
2015-10-31,7,250
2015-11-01,2,252
2015-11-02,11,265
2015-11-03,1,266
2015-11-04,2,235
2015-11-05,6,256
2015-11-06,1,251
2015-11-07,2,209
2015-11-08,4,217
2015-11-09,6,249
2015-11-10,2,224
2015-11-11,6,205
2015-11-12,5,197
2015-11-13,4,219
2015-11-14,6,193
2015-11-15,6,198
2015-11-16,7,199
2015-11-17,2,190
2015-11-18,2,190
2015-11-19,1,182
2015-11-20,4,174
2015-11-21,2,157
2015-11-22,2,153
2015-11-23,10,185
2015-11-24,8,156
2015-11-25,5,190
2015-11-26,6,159
2015-11-27,6,156
2015-11-28,2,152
2015-11-29,2,136
2015-11-30,4,173
2015-12-01,8,144
2015-12-02,7,151
2015-12-03,9,155
2015-12-04,2,148
2015-12-05,4,146
2015-12-06,5,121
2015-12-07,5,155
2015-12-08,8,157
2015-12-09,3,154
2015-12-10,8,153
2015-12-11,6,139
2015-12-12,6,113
2015-12-13,7,137
2015-12-14,4,156
2015-12-15,6,152
2015-12-16,7,155
2015-12-17,3,144
2015-12-18,8,166
2015-12-19,12,134
2015-12-20,11,146
2015-12-21,3,147
2015-12-22,2,156
2015-12-23,7,150
2015-12-24,3,165
2015-12-25,7,144
2015-12-26,4,127
2015-12-27,9,144
2015-12-28,5,156
2015-12-29,2,140
2015-12-30,5,140
2015-12-31,2,142
2016-01-01,3,106
2016-01-02,6,138
2016-01-03,5,125
2016-01-04,0,171
2016-01-05,6,120
2016-01-06,6,159
2016-01-07,3,142
2016-01-08,5,140
2016-01-09,4,117
2016-01-10,3,123
2016-01-11,4,138
2016-01-12,0,140
2016-01-13,2,133
2016-01-14,3,136
2016-01-15,4,140
2016-01-16,6,127
2016-01-17,4,127
2016-01-18,1,153
2016-01-19,5,133
2016-01-20,0,149
2016-01-21,3,129
2016-01-22,2,138
2016-01-23,3,135
2016-01-24,7,103
2016-01-25,3,151
2016-01-26,2,140
2016-01-27,4,154
2016-01-28,2,135
2016-01-29,3,139
2016-01-30,0,132
2016-01-31,1,126
2016-02-01,2,140
2016-02-02,0,116
2016-02-03,2,137
2016-02-04,2,113
2016-02-05,2,126
2016-02-06,4,106
2016-02-07,0,91
2016-02-08,0,98
2016-02-09,2,105
2016-02-10,2,98
2016-02-11,1,89
2016-02-12,4,107
2016-02-13,5,117
2016-02-14,4,108
2016-02-15,4,126
2016-02-16,2,130
2016-02-17,4,116
2016-02-18,3,133
2016-02-19,3,121
2016-02-20,5,122
2016-02-21,3,124
2016-02-22,3,134
2016-02-23,4,125
2016-02-24,3,114
2016-02-25,7,133
2016-02-26,3,136
2016-02-27,1,111
2016-02-28,4,124
2016-02-29,5,141
2016-03-01,3,139
2016-03-02,1,142
2016-03-03,5,131
2016-03-04,4,126
2016-03-05,6,120
2016-03-06,3,105
2016-03-07,2,135
2016-03-08,2,129
2016-03-09,2,133
2016-03-10,1,120
2016-03-11,6,132
2016-03-12,4,120
2016-03-13,4,107
2016-03-14,2,138
2016-03-15,4,118
2016-03-16,4,141
2016-03-17,8,128
2016-03-18,3,141
2016-03-19,5,119
2016-03-20,2,128
2016-03-21,4,124
2016-03-22,4,133
2016-03-23,9,134
2016-03-24,4,118
2016-03-25,4,140
2016-03-26,5,122
2016-03-27,8,101
2016-03-28,5,131
2016-03-29,6,121
2016-03-30,4,116
2016-03-31,4,122
2016-04-01,2,128
2016-04-02,4,117
2016-04-03,7,105
2016-04-04,4,132
2016-04-05,7,125
2016-04-06,8,131
2016-04-07,3,121
2016-04-08,3,126
2016-04-09,6,115
2016-04-10,1,99
2016-04-11,2,132
2016-04-12,3,129
2016-04-13,4,138
2016-04-14,3,128
2016-04-15,2,131
2016-04-16,4,124
2016-04-17,1,107
2016-04-18,3,150
2016-04-19,3,125
2016-04-20,1,120
2016-04-21,3,131
2016-04-22,2,125
2016-04-23,3,129
2016-04-24,3,113
2016-04-25,5,140
2016-04-26,3,129
2016-04-27,2,131
2016-04-28,5,124
2016-04-29,2,148
2016-04-30,6,109
2016-05-01,4,120
2016-05-02,4,120
2016-05-03,3,129
2016-05-04,0,124
2016-05-05,2,145
2016-05-06,3,118
2016-05-07,2,127
2016-05-08,3,114
2016-05-09,5,151
2016-05-10,1,119
2016-05-11,1,144
2016-05-12,2,122
2016-05-13,2,149
2016-05-14,1,108
2016-05-15,4,125
2016-05-16,4,129
2016-05-17,1,143
2016-05-18,0,140
2016-05-19,1,155
2016-05-20,3,145
2016-05-21,3,143
2016-05-22,1,148
2016-05-23,5,187
2016-05-24,1,145
2016-05-25,2,208
2016-05-26,1,173
2016-05-27,1,199
2016-05-28,2,171
2016-05-29,5,199
2016-05-30,0,217
2016-05-31,4,207
2016-06-01,2,206
2016-06-02,4,214
2016-06-03,0,240
2016-06-04,2,202
2016-06-05,5,201
2016-06-06,2,236
2016-06-07,0,208
2016-06-08,1,225
2016-06-09,5,189
2016-06-10,4,207
2016-06-11,3,218
2016-06-12,0,247
2016-06-13,0,239
2016-06-14,3,226
2016-06-15,1,242
2016-06-16,2,234
2016-06-17,3,228
2016-06-18,2,230
2016-06-19,5,211
2016-06-20,2,260
2016-06-21,2,220
2016-06-22,0,236
2016-06-23,5,220
2016-06-24,0,240
2016-06-25,1,213
2016-06-26,4,195
2016-06-27,1,251
2016-06-28,2,209
2016-06-29,4,243
2016-06-30,4,211
2016-07-01,3,246
2016-07-02,3,214
2016-07-03,5,207
2016-07-04,3,248
2016-07-05,2,232
2016-07-06,2,226
2016-07-07,6,240
2016-07-08,1,219
2016-07-09,2,211
2016-07-10,2,193
2016-07-11,2,256
2016-07-12,3,220
2016-07-13,1,242
2016-07-14,4,222
2016-07-15,4,235
2016-07-16,1,226
2016-07-17,8,205
2016-07-18,1,243
2016-07-19,0,217
2016-07-20,3,243
2016-07-21,0,225
2016-07-22,1,220
2016-07-23,2,202
2016-07-24,0,202
2016-07-25,4,233
2016-07-26,1,212
2016-07-27,1,252
2016-07-28,6,207
2016-07-29,3,230
2016-07-30,2,209
2016-07-31,5,215
2016-08-01,4,246
2016-08-02,1,216
2016-08-03,2,240
2016-08-04,4,211
2016-08-05,0,239
2016-08-06,4,211
2016-08-07,3,222
2016-08-08,2,229
2016-08-09,1,210
2016-08-10,2,226
2016-08-11,0,209
2016-08-12,1,232
2016-08-13,4,206
2016-08-14,3,216
2016-08-15,1,235
2016-08-16,0,232
2016-08-17,1,208
2016-08-18,3,225
2016-08-19,3,219
2016-08-20,3,200
2016-08-21,1,220
2016-08-22,1,220
2016-08-23,1,228
2016-08-24,3,228
2016-08-25,2,226
2016-08-26,2,222
2016-08-27,2,197
2016-08-28,4,201
2016-08-29,2,214
2016-08-30,0,208
2016-08-31,2,219
2016-09-01,1,209
2016-09-02,1,228
2016-09-03,3,191
2016-09-04,5,201
2016-09-05,0,225
2016-09-06,2,206
2016-09-07,3,217
2016-09-08,2,205
2016-09-09,1,219
2016-09-10,1,205
2016-09-11,1,201
2016-09-12,3,224
2016-09-13,6,214
2016-09-14,3,219
2016-09-15,0,168
2016-09-16,4,185
2016-09-17,4,197
2016-09-18,4,223
2016-09-19,4,215
2016-09-20,2,194
2016-09-21,1,207
2016-09-22,1,212
2016-09-23,0,215
2016-09-24,0,196
2016-09-25,4,190
2016-09-26,1,241
2016-09-27,0,184
2016-09-28,0,230
2016-09-29,2,205
2016-09-30,2,228
2016-10-01,1,185
2016-10-02,4,165
2016-10-03,0,190
2016-10-04,0,189
2016-10-05,3,204
2016-10-06,2,188
2016-10-07,2,185
2016-10-08,4,217
2016-10-09,2,196
2016-10-10,4,201
2016-10-11,2,215
2016-10-12,3,200
2016-10-13,2,207
2016-10-14,3,190
2016-10-15,1,194
2016-10-16,1,178
2016-10-17,4,210
2016-10-18,2,191
2016-10-19,1,201
2016-10-20,0,186
2016-10-21,2,220
2016-10-22,3,178
2016-10-23,2,195
2016-10-24,1,210
2016-10-25,5,194
2016-10-26,5,199
2016-10-27,1,211
2016-10-28,2,187
2016-10-29,2,184
2016-10-30,3,183
2016-10-31,3,200
2016-11-01,1,191
2016-11-02,4,203
2016-11-03,1,191
2016-11-04,3,211
2016-11-05,4,182
2016-11-06,2,185
2016-11-07,2,207
2016-11-08,4,195
2016-11-09,1,191
2016-11-10,2,200
2016-11-11,2,200
2016-11-12,2,203
2016-11-13,5,168
2016-11-14,3,223
2016-11-15,2,178
2016-11-16,1,216
2016-11-17,4,179
2016-11-18,4,223
2016-11-19,4,201
2016-11-20,1,190
2016-11-21,2,201
2016-11-22,3,189
2016-11-23,2,205
2016-11-24,0,199
2016-11-25,1,205
2016-11-26,4,197
2016-11-27,5,178
2016-11-28,1,227
2016-11-29,9,205
2016-11-30,1,211
2016-12-01,5,194
2016-12-02,3,223
2016-12-03,3,192
2016-12-04,7,174
2016-12-05,5,215
2016-12-06,6,182
2016-12-07,7,211
2016-12-08,5,188
2016-12-09,3,208
2016-12-10,4,195
2016-12-11,4,190
2016-12-12,5,207
2016-12-13,2,190
2016-12-14,0,192
2016-12-15,2,207
2016-12-16,2,183
2016-12-17,5,205
2016-12-18,5,173
2016-12-19,0,224
2016-12-20,2,198
2016-12-21,3,187
2016-12-22,0,210
2016-12-23,1,183
2016-12-24,0,187
2016-12-25,2,180
2016-12-26,3,208
2016-12-27,7,181
2016-12-28,0,181
2016-12-29,0,183
2016-12-30,0,185
2016-12-31,0,149
2017-01-01,0,169
2017-01-02,2,174
2017-01-03,0,181
2017-01-04,1,185
2017-01-05,4,193
2017-01-06,2,184
2017-01-07,2,179
2017-01-08,6,160
2017-01-09,3,201
2017-01-10,0,169
2017-01-11,5,191
2017-01-12,6,181
2017-01-13,0,192
2017-01-14,2,163
2017-01-15,2,192
2017-01-16,5,205
2017-01-17,4,167
2017-01-18,3,206
2017-01-19,4,168
2017-01-20,1,205
2017-01-21,6,157
2017-01-22,4,181
2017-01-23,1,180
2017-01-24,8,179
2017-01-25,3,177
2017-01-26,3,157
2017-01-27,1,150
2017-01-28,0,142
2017-01-29,3,144
2017-01-30,2,138
2017-01-31,3,159
2017-02-01,3,146
2017-02-02,7,172
2017-02-03,3,173
2017-02-04,7,179
2017-02-05,2,177
2017-02-06,2,204
2017-02-07,5,179
2017-02-08,6,201
2017-02-09,3,195
2017-02-10,2,212
2017-02-11,2,171
2017-02-12,1,193
2017-02-13,0,215
2017-02-14,9,178
2017-02-15,10,211
2017-02-16,2,197
2017-02-17,4,217
2017-02-18,4,177
2017-02-19,3,183
2017-02-20,4,208
2017-02-21,8,205
2017-02-22,9,194
2017-02-23,10,203
2017-02-24,8,200
2017-02-25,6,185
2017-02-26,4,186
2017-02-27,1,226
2017-02-28,0,185
2017-03-01,1,220
2017-03-02,2,201
2017-03-03,3,204
2017-03-04,4,210
2017-03-05,2,199
2017-03-06,5,223
2017-03-07,4,198
2017-03-08,5,222
2017-03-09,3,208
2017-03-10,2,226
2017-03-11,2,188
2017-03-12,3,210
2017-03-13,0,203
2017-03-14,2,208
2017-03-15,1,218
2017-03-16,2,198
2017-03-17,3,219
2017-03-18,4,203
2017-03-19,2,185
2017-03-20,1,214
2017-03-21,1,192
2017-03-22,3,216
2017-03-23,2,206
2017-03-24,3,219
2017-03-25,3,180
2017-03-26,3,204
2017-03-27,1,204
2017-03-28,1,197
2017-03-29,2,203
2017-03-30,2,198
2017-03-31,1,220
2017-04-01,2,176
2017-04-02,0,178
2017-04-03,2,162
2017-04-04,4,197
2017-04-05,1,218
2017-04-06,3,201
2017-04-07,0,198
2017-04-08,1,180
2017-04-09,1,173
2017-04-10,2,228
2017-04-11,2,192
2017-04-12,1,217
2017-04-13,4,180
2017-04-14,6,223
2017-04-15,5,164
2017-04-16,7,186
2017-04-17,2,214
2017-04-18,1,195
2017-04-19,0,211
2017-04-20,0,199
2017-04-21,2,183
2017-04-22,1,15
2017-04-23,0,241
2017-04-24,1,178
2017-04-25,0,201
2017-04-26,0,192
2017-04-27,1,199
2017-04-28,1,172
2017-04-29,0,184
2017-04-30,0,137
2017-05-01,0,179
2017-05-02,0,198
2017-05-03,2,174
2017-05-04,2,213
2017-05-05,1,185
2017-05-06,0,174
2017-05-07,5,178
2017-05-08,2,184
2017-05-09,1,190
2017-05-10,4,186
2017-05-11,3,199
2017-05-12,0,183
2017-05-13,2,175
2017-05-14,2,157
2017-05-15,3,203
2017-05-16,1,158
2017-05-17,0,200
2017-05-18,1,169
2017-05-19,2,197
2017-05-20,1,156
2017-05-21,0,172
2017-05-22,2,183
2017-05-23,1,191
2017-05-24,2,193
2017-05-25,1,186
2017-05-26,1,189
2017-05-27,0,176
2017-05-28,1,148
2017-05-29,1,161
2017-05-30,1,164
2017-05-31,3,207
2017-06-01,3,163
2017-06-02,1,198
2017-06-03,3,150
2017-06-04,1,177
2017-06-05,0,181
2017-06-06,2,179
2017-06-07,3,190
2017-06-08,2,174
2017-06-09,0,184
2017-06-10,3,158
2017-06-11,2,161
2017-06-12,2,203
2017-06-13,0,186
2017-06-14,0,179
2017-06-15,2,183
2017-06-16,1,179
2017-06-17,1,154
2017-06-18,3,166
2017-06-19,1,195
2017-06-20,1,184
2017-06-21,0,174
2017-06-22,2,191
2017-06-23,1,177
2017-06-24,1,177
2017-06-25,3,156
2017-06-26,3,191
2017-06-27,0,176
2017-06-28,4,175
2017-06-29,2,181
2017-06-30,1,179
2017-07-01,1,162
2017-07-02,3,176
2017-07-03,0,189
2017-07-04,0,177
2017-07-05,0,191
2017-07-06,0,166
2017-07-07,0,181
2017-07-08,1,162
2017-07-09,0,148
2017-07-10,1,192
2017-07-11,0,179
2017-07-12,0,204
2017-07-13,0,164
2017-07-14,2,174
2017-07-15,2,157
2017-07-16,0,158
2017-07-17,3,202
2017-07-18,0,147
2017-07-19,1,196
2017-07-20,0,166
2017-07-21,1,205
2017-07-22,1,156
2017-07-23,0,154
2017-07-24,3,169
2017-07-25,0,185
2017-07-26,0,129
2017-07-27,0,178
2017-07-28,2,174
2017-07-29,4,157
2017-07-30,4,158
2017-07-31,0,167
2017-08-01,0,170
2017-08-02,1,160
2017-08-03,2,160
2017-08-04,0,163
2017-08-05,0,139
2017-08-06,1,143
2017-08-07,3,182
2017-08-08,1,168
2017-08-09,0,152
2017-08-10,0,162
2017-08-11,0,169
2017-08-12,0,139
2017-08-13,1,156
2017-08-14,3,167
2017-08-15,3,156
2017-08-16,5,157
2017-08-17,2,156
2017-08-18,3,174
2017-08-19,0,147
2017-08-20,2,146
2017-08-21,1,177
2017-08-22,4,153
2017-08-23,2,122
2017-08-24,2,152
2017-08-25,0,148
2017-08-26,1,145
2017-08-27,2,136
2017-08-28,3,141
2017-08-29,0,136
2017-08-30,1,144
2017-08-31,1,163
2017-09-01,0,146
2017-09-02,1,137
2017-09-03,1,140
2017-09-04,3,161
2017-09-05,5,151
2017-09-06,2,89
2017-09-07,0,161
2017-09-08,2,153
2017-09-09,3,134
2017-09-10,2,135
2017-09-11,3,163
2017-09-12,3,146
2017-09-13,2,94
2017-09-14,2,158
2017-09-15,2,137
2017-09-16,0,139
2017-09-17,1,132
2017-09-18,0,157
2017-09-19,1,148
2017-09-20,0,144
2017-09-21,3,153
2017-09-22,1,139
2017-09-23,1,119
2017-09-24,1,126
2017-09-25,0,148
2017-09-26,2,139
2017-09-27,0,135
2017-09-28,0,136
2017-09-29,0,134
2017-09-30,1,131
2017-10-01,2,111
2017-10-02,1,99
2017-10-03,1,105
2017-10-04,0,113
2017-10-05,0,106
2017-10-06,0,113
2017-10-07,1,119
2017-10-08,1,123
2017-10-09,0,141
2017-10-10,0,129
2017-10-11,2,135
2017-10-12,2,120
2017-10-13,2,134
2017-10-14,0,117
2017-10-15,0,125
2017-10-16,1,135
2017-10-17,1,133
2017-10-18,1,154
2017-10-19,1,121
2017-10-20,1,131
2017-10-21,0,119
2017-10-22,0,117
2017-10-23,3,133
2017-10-24,1,138
2017-10-25,0,143
2017-10-26,0,131
2017-10-27,4,115
2017-10-28,2,119
2017-10-29,2,129
2017-10-30,0,131
2017-10-31,1,129
2017-11-01,0,121
2017-11-02,2,128
2017-11-03,0,119
2017-11-04,1,123
2017-11-05,1,109
2017-11-06,1,66
2017-11-07,2,130
2017-11-08,2,125
2017-11-09,1,114
2017-11-10,0,137
2017-11-11,0,113
2017-11-12,0,120
2017-11-13,1,133
2017-11-14,2,143
2017-11-15,2,123
2017-11-16,0,134
2017-11-17,0,115
2017-11-18,0,129
2017-11-19,1,111
2017-11-20,3,126
2017-11-21,3,121
2017-11-22,3,133
2017-11-23,2,122
2017-11-24,3,130
2017-11-25,1,99
2017-11-26,2,108
2017-11-27,0,134
2017-11-28,1,123
2017-11-29,1,119
2017-11-30,1,116
2017-12-01,1,112
2017-12-02,3,111
2017-12-03,2,114
2017-12-04,4,123
2017-12-05,1,116
2017-12-06,0,126
2017-12-07,0,124
2017-12-08,1,120
2017-12-09,1,116
2017-12-10,1,125
2017-12-11,0,136
2017-12-12,2,127
2017-12-13,1,141
2017-12-14,0,115
2017-12-15,2,128
2017-12-16,4,144
2017-12-17,1,118
2017-12-18,0,128
2017-12-19,0,130
2017-12-20,0,125
2017-12-21,1,129
2017-12-22,2,115
2017-12-23,0,123
2017-12-24,1,122
2017-12-25,1,122
2017-12-26,0,125
2017-12-27,0,117
2017-12-28,0,119
2017-12-29,3,131
2017-12-30,1,104
2017-12-31,2,111
2018-01-01,0,109
2018-01-02,2,138
2018-01-03,3,123
2018-01-04,2,117
2018-01-05,3,126
2018-01-06,1,106
2018-01-07,1,106
2018-01-08,1,135
2018-01-09,0,128
2018-01-10,1,131
2018-01-11,2,132
2018-01-12,2,125
2018-01-13,0,111
2018-01-14,3,119
2018-01-15,1,127
2018-01-16,0,129
2018-01-17,1,131
2018-01-18,2,123
2018-01-19,2,133
2018-01-20,1,124
2018-01-21,1,127
2018-01-22,1,129
2018-01-23,1,129
2018-01-24,1,131
2018-01-25,2,119
2018-01-26,1,122
2018-01-27,1,127
2018-01-28,1,122
2018-01-29,2,135
2018-01-30,2,118
2018-01-31,1,128
2018-02-01,0,132
2018-02-02,1,133
2018-02-03,0,116
2018-02-04,1,117
2018-02-05,2,119
2018-02-06,2,130
2018-02-07,0,116
2018-02-08,1,97
2018-02-09,1,121
2018-02-10,3,109
2018-02-11,5,116
2018-02-12,3,113
2018-02-13,2,90
2018-02-14,0,117
2018-02-15,0,101
2018-02-16,0,86
2018-02-17,0,77
2018-02-18,1,85
2018-02-19,2,98
2018-02-20,0,101
2018-02-21,0,110
2018-02-22,0,121
2018-02-23,0,113
2018-02-24,5,124
2018-02-25,0,100
2018-02-26,1,125
2018-02-27,0,105
2018-02-28,2,106
2018-03-01,2,104
2018-03-02,2,113
2018-03-03,1,107
2018-03-04,0,110
2018-03-05,2,113
2018-03-06,1,118
2018-03-07,1,118
2018-03-08,0,122
2018-03-09,1,123
2018-03-10,1,102
2018-03-11,0,106
2018-03-12,0,121
2018-03-13,1,125
2018-03-14,0,122
2018-03-15,1,121
2018-03-16,1,111
2018-03-17,2,114
2018-03-18,3,107
2018-03-19,2,120
2018-03-20,1,119
2018-03-21,0,129
2018-03-22,0,130
2018-03-23,0,122
2018-03-24,0,97
2018-03-25,1,112
2018-03-26,1,125
2018-03-27,0,122
2018-03-28,1,116
2018-03-29,0,108
2018-03-30,1,120
2018-03-31,0,94
2018-04-01,2,105
2018-04-02,0,120
2018-04-03,0,111
2018-04-04,1,106
2018-04-05,2,99
2018-04-06,2,82
2018-04-07,0,95
2018-04-08,0,123
2018-04-09,0,112
2018-04-10,0,130
2018-04-11,1,130
2018-04-12,0,126
2018-04-13,0,118
2018-04-14,3,115
2018-04-15,0,117
2018-04-16,0,120
2018-04-17,0,129
2018-04-18,2,132
2018-04-19,0,118
2018-04-20,1,109
2018-04-21,0,104
2018-04-22,0,112
2018-04-23,0,131
2018-04-24,0,118
2018-04-25,0,108
2018-04-26,3,116
2018-04-27,1,120
2018-04-28,2,106
2018-04-29,0,99
2018-04-30,0,87
2018-05-01,2,107
2018-05-02,0,123
2018-05-03,0,111
2018-05-04,0,114
2018-05-05,0,92
2018-05-06,1,96
2018-05-07,1,123
2018-05-08,0,111
2018-05-09,1,110
2018-05-10,1,114
2018-05-11,2,123
2018-05-12,0,102
2018-05-13,0,89
2018-05-14,0,113
2018-05-15,3,109
2018-05-16,0,102
2018-05-17,2,107
2018-05-18,2,112
2018-05-19,0,60
2018-05-20,2,98
2018-05-21,2,120
2018-05-22,1,104
2018-05-23,0,105
2018-05-24,1,120
2018-05-25,0,108
2018-05-26,0,101
2018-05-27,4,96
2018-05-28,0,120
2018-05-29,2,110
2018-05-30,0,113
2018-05-31,1,108
2018-06-01,2,119
2018-06-02,3,82
2018-06-03,1,99
2018-06-04,1,117
2018-06-05,1,86
2018-06-06,0,106
2018-06-07,0,100
2018-06-08,1,119
2018-06-09,1,92
2018-06-10,1,85
2018-06-11,2,117
2018-06-12,1,101
2018-06-13,2,104
2018-06-14,0,108
2018-06-15,1,99
2018-06-16,2,98
2018-06-17,2,89
2018-06-18,0,99
2018-06-19,1,105
2018-06-20,0,53
2018-06-21,0,71
2018-06-22,1,107
2018-06-23,3,74
2018-06-24,3,84
2018-06-25,1,110
2018-06-26,1,95
2018-06-27,1,89
2018-06-28,1,91
2018-06-29,1,100
2018-06-30,1,82
2018-07-01,2,91
2018-07-02,0,110
2018-07-03,1,100
2018-07-04,1,105
2018-07-05,1,94
2018-07-06,0,104
2018-07-07,1,92
2018-07-08,3,91
2018-07-09,2,97
2018-07-10,1,104
2018-07-11,2,88
2018-07-12,0,89
2018-07-13,0,94
2018-07-14,0,75
2018-07-15,3,85
2018-07-16,1,106
2018-07-17,1,106
2018-07-18,2,94
2018-07-19,0,92
2018-07-20,0,96
2018-07-21,0,81
2018-07-22,3,81
2018-07-23,4,101
2018-07-24,2,99
2018-07-25,0,99
2018-07-26,0,93
2018-07-27,1,95
2018-07-28,3,85
2018-07-29,1,85
2018-07-30,1,107
2018-07-31,0,90
2018-08-01,0,98
2018-08-02,0,100
2018-08-03,1,104
2018-08-04,2,92
2018-08-05,1,90
2018-08-06,2,105
2018-08-07,2,108
2018-08-08,4,107
2018-08-09,2,107
2018-08-10,0,99
2018-08-11,0,90
2018-08-12,2,86
2018-08-13,1,114
2018-08-14,0,101
2018-08-15,1,106
2018-08-16,1,84
2018-08-17,0,103
2018-08-18,1,88
2018-08-19,1,78
2018-08-20,0,98
2018-08-21,1,93
2018-08-22,0,103
2018-08-23,1,97
2018-08-24,0,85
2018-08-25,0,78
2018-08-26,0,86
2018-08-27,0,95
2018-08-28,0,97
2018-08-29,0,95
2018-08-30,1,101
2018-08-31,0,98
2018-09-01,0,85
2018-09-02,0,89
2018-09-03,0,105
2018-09-04,0,88
2018-09-05,2,103
2018-09-06,2,91
2018-09-07,3,88
2018-09-08,0,81
2018-09-09,0,80
2018-09-10,0,103
2018-09-11,1,92
2018-09-12,2,73
2018-09-13,0,95
2018-09-14,1,93
2018-09-15,2,75
2018-09-16,1,94
2018-09-17,1,89
2018-09-18,1,94
2018-09-19,0,78
2018-09-20,0,78
2018-09-21,1,98
2018-09-22,0,73
2018-09-23,2,95
2018-09-24,1,81
2018-09-25,1,91
2018-09-26,2,99
2018-09-27,2,91
2018-09-28,1,87
2018-09-29,1,89
2018-09-30,2,82
2018-10-01,0,77
2018-10-02,0,68
2018-10-03,1,71
2018-10-04,0,74
2018-10-05,0,85
2018-10-06,2,71
2018-10-07,2,86
2018-10-08,0,92
2018-10-09,0,85
2018-10-10,0,86
2018-10-11,0,75
2018-10-12,0,96
2018-10-13,0,80
2018-10-14,2,82
2018-10-15,2,85
2018-10-16,2,88
2018-10-17,2,82
2018-10-18,0,93
2018-10-19,1,78
2018-10-20,1,94
2018-10-21,0,92
2018-10-22,4,85
2018-10-23,1,92
2018-10-24,0,89
2018-10-25,1,85
2018-10-26,1,82
2018-10-27,1,76
2018-10-28,0,83
2018-10-29,0,85
2018-10-30,1,82
2018-10-31,1,89
2018-11-01,0,84
2018-11-02,0,88
2018-11-03,0,74
2018-11-04,2,87
2018-11-05,0,92
2018-11-06,1,79
2018-11-07,0,69
2018-11-08,3,79
2018-11-09,2,87
2018-11-10,0,68
2018-11-11,0,82
2018-11-12,2,82
2018-11-13,1,64
2018-11-14,0,84
2018-11-15,1,89
2018-11-16,1,80
2018-11-17,2,79
2018-11-18,1,77
2018-11-19,0,82
2018-11-20,1,79
2018-11-21,1,75
2018-11-22,0,77
2018-11-23,0,88
2018-11-24,1,68
2018-11-25,0,69
2018-11-26,0,84
2018-11-27,2,75
2018-11-28,0,81
2018-11-29,0,83
2018-11-30,0,78
2018-12-01,0,76
2018-12-02,1,74
2018-12-03,0,73
2018-12-04,0,77
2018-12-05,0,89
2018-12-06,0,80
2018-12-07,0,87
2018-12-08,1,64
2018-12-09,1,69
2018-12-10,0,87
2018-12-11,3,89
2018-12-12,0,77
2018-12-13,1,74
2018-12-14,0,78
2018-12-15,1,77
2018-12-16,0,69
2018-12-17,1,79